Time,TemperatureF,DewpointF,PressureIn,WindDirection,WindDirectionDegrees,WindSpeedMPH,WindSpeedGustMPH,Humidity,HourlyPrecipIn,Conditions,Clouds,dailyrainin,SoftwareType,DateUTC
2013-02-18 00:00:00,45.8,42.8,29.94,WSW,237,0.0,0.0,89,0.00,,---,0.00,VWS V14.01,2013-02-18 08:00:00,
2013-02-18 00:09:00,45.8,42.8,29.94,WSW,237,0.0,0.0,89,0.00,,---,0.00,VWS V14.01,2013-02-18 08:09:00,
2013-02-18 00:19:00,45.8,42.8,29.93,WSW,237,0.0,0.0,89,0.00,,---,0.00,VWS V14.01,2013-02-18 08:19:00,
2013-02-18 00:29:00,46.0,43.2,29.93,WSW,237,0.0,0.0,90,0.00,,---,0.00,VWS V14.01,2013-02-18 08:29:00,
2013-02-18 00:34:00,46.1,43.3,29.93,WSW,237,0.0,0.0,90,0.00,,---,0.00,VWS V14.01,2013-02-18 08:34:00,
2013-02-18 00:44:00,46.2,43.4,29.93,WSW,237,0.0,0.0,90,0.00,,---,0.00,VWS V14.01,2013-02-18 08:44:00,
2013-02-18 00:49:00,46.5,44.0,29.93,WSW,237,0.0,0.0,91,0.00,,---,0.00,VWS V14.01,2013-02-18 08:49:00,
2013-02-18 00:59:00,46.8,44.3,29.93,WSW,237,0.0,0.0,91,0.00,,---,0.00,VWS V14.01,2013-02-18 08:59:00,
2013-02-18 01:04:00,47.1,44.6,29.93,WSW,237,0.0,0.0,91,0.00,,---,0.00,VWS V14.01,2013-02-18 09:04:00,
2013-02-18 01:14:00,47.6,45.1,29.93,WSW,237,0.0,0.0,91,0.00,,---,0.00,VWS V14.01,2013-02-18 09:14:00,
2013-02-18 01:24:00,48.0,45.5,29.93,WSW,237,0.0,0.0,91,0.00,,---,0.00,VWS V14.01,2013-02-18 09:24:00,
2013-02-18 01:29:00,48.3,45.8,29.93,WSW,237,0.0,0.0,91,0.00,,---,0.00,VWS V14.01,2013-02-18 09:29:00,
2013-02-18 01:34:00,48.6,46.4,29.93,WSW,237,0.0,0.0,92,0.00,,---,0.00,VWS V14.01,2013-02-18 09:34:00,
2013-02-18 01:39:00,48.6,46.4,29.93,WSW,237,0.0,0.0,92,0.00,,---,0.00,VWS V14.01,2013-02-18 09:39:00,
2013-02-18 01:49:00,48.6,46.4,29.93,WSW,237,0.0,0.0,92,0.00,,---,0.00,VWS V14.01,2013-02-18 09:49:00,
2013-02-18 01:54:00,48.6,46.4,29.93,WSW,237,0.0,0.0,92,0.00,,---,0.00,VWS V14.01,2013-02-18 09:54:00,
2013-02-18 01:59:00,48.5,46.3,29.93,WSW,237,0.0,0.0,92,0.00,,---,0.00,VWS V14.01,2013-02-18 09:59:00,
2013-02-18 02:04:00,48.5,46.3,29.93,WSW,237,0.0,0.0,92,0.00,,---,0.00,VWS V14.01,2013-02-18 10:04:00,
2013-02-18 02:09:00,48.3,46.1,29.93,WSW,237,0.0,0.0,92,0.00,,---,0.00,VWS V14.01,2013-02-18 10:09:00,
2013-02-18 02:14:00,48.2,46.0,29.93,WSW,237,0.0,0.0,92,0.00,,---,0.00,VWS V14.01,2013-02-18 10:14:00,
2013-02-18 02:24:00,48.0,45.8,29.93,WSW,237,0.0,0.0,92,0.00,,---,0.00,VWS V14.01,2013-02-18 10:24:00,
2013-02-18 02:29:00,48.0,45.8,29.93,WSW,237,0.0,0.0,92,0.00,,---,0.00,VWS V14.01,2013-02-18 10:29:00,
2013-02-18 02:39:00,47.9,45.7,29.93,WSW,237,0.0,0.0,92,0.00,,---,0.00,VWS V14.01,2013-02-18 10:39:00,
2013-02-18 02:44:00,47.9,45.7,29.92,WSW,237,0.0,0.0,92,0.00,,---,0.00,VWS V14.01,2013-02-18 10:44:00,
2013-02-18 02:49:00,47.7,45.5,29.92,WSW,237,0.0,0.0,92,0.00,,---,0.00,VWS V14.01,2013-02-18 10:49:00,
2013-02-18 02:55:00,47.7,45.5,29.92,WSW,237,0.0,0.0,92,0.00,,---,0.00,VWS V14.01,2013-02-18 10:55:00,
2013-02-18 03:00:00,47.6,45.7,29.92,WSW,237,0.0,0.0,93,0.00,,---,0.00,VWS V14.01,2013-02-18 11:00:00,
2013-02-18 03:09:00,47.4,45.5,29.92,WSW,237,0.0,0.0,93,0.00,,---,0.00,VWS V14.01,2013-02-18 11:09:00,
2013-02-18 03:15:00,47.4,45.5,29.92,WSW,237,0.0,0.0,93,0.00,,---,0.00,VWS V14.01,2013-02-18 11:15:00,
2013-02-18 03:24:00,47.3,45.4,29.92,WSW,237,0.0,0.0,93,0.00,,---,0.00,VWS V14.01,2013-02-18 11:24:00,
2013-02-18 03:29:00,47.1,45.2,29.93,WSW,237,0.0,0.0,93,0.00,,---,0.00,VWS V14.01,2013-02-18 11:29:00,
2013-02-18 03:34:00,47.0,45.1,29.93,WSW,237,0.0,0.0,93,0.00,,---,0.00,VWS V14.01,2013-02-18 11:34:00,
2013-02-18 03:44:00,46.7,44.8,29.93,WSW,237,0.0,0.0,93,0.00,,---,0.00,VWS V14.01,2013-02-18 11:44:00,
2013-02-18 03:49:00,46.5,44.6,29.93,WSW,237,0.0,0.0,93,0.00,,---,0.00,VWS V14.01,2013-02-18 11:49:00,
2013-02-18 03:54:00,46.5,44.6,29.93,WSW,237,0.0,0.0,93,0.00,,---,0.00,VWS V14.01,2013-02-18 11:54:00,
2013-02-18 03:59:00,46.4,44.5,29.93,WSW,237,0.0,0.0,93,0.00,,---,0.00,VWS V14.01,2013-02-18 11:59:00,
2013-02-18 04:09:00,46.2,44.3,29.93,WSW,237,0.0,0.0,93,0.00,,---,0.00,VWS V14.01,2013-02-18 12:09:00,
2013-02-18 04:14:00,46.1,44.2,29.94,WSW,237,0.0,0.0,93,0.00,,---,0.00,VWS V14.01,2013-02-18 12:14:00,
2013-02-18 04:19:00,46.1,44.2,29.94,WSW,237,0.0,0.0,93,0.00,,---,0.00,VWS V14.01,2013-02-18 12:19:00,
2013-02-18 04:29:00,45.8,43.9,29.94,WSW,237,0.0,0.0,93,0.00,,---,0.00,VWS V14.01,2013-02-18 12:29:00,
2013-02-18 04:34:00,45.7,43.8,29.94,WSW,237,0.0,0.0,93,0.00,,---,0.00,VWS V14.01,2013-02-18 12:34:00,
2013-02-18 04:40:00,45.5,43.6,29.94,WSW,237,0.0,0.0,93,0.00,,---,0.00,VWS V14.01,2013-02-18 12:40:00,
2013-02-18 04:44:00,45.4,43.5,29.95,WSW,237,0.0,0.0,93,0.00,,---,0.00,VWS V14.01,2013-02-18 12:44:00,
2013-02-18 04:50:00,45.2,43.3,29.95,WSW,237,0.0,0.0,93,0.00,,---,0.00,VWS V14.01,2013-02-18 12:50:00,
2013-02-18 05:00:00,44.9,43.0,29.95,WSW,237,0.0,0.0,93,0.00,,---,0.00,VWS V14.01,2013-02-18 13:00:00,
2013-02-18 05:05:00,44.8,42.9,29.95,WSW,237,0.0,0.0,93,0.00,,---,0.00,VWS V14.01,2013-02-18 13:05:00,
2013-02-18 05:14:00,44.5,42.6,29.96,WSW,237,0.0,0.0,93,0.00,,---,0.00,VWS V14.01,2013-02-18 13:14:00,
2013-02-18 05:20:00,44.2,42.3,29.96,WSW,237,0.0,0.0,93,0.00,,---,0.00,VWS V14.01,2013-02-18 13:20:00,
2013-02-18 05:25:00,44.1,42.2,29.96,WSW,237,0.0,0.0,93,0.00,,---,0.00,VWS V14.01,2013-02-18 13:25:00,
2013-02-18 05:34:00,43.6,41.7,29.97,WSW,237,0.0,0.0,93,0.00,,---,0.00,VWS V14.01,2013-02-18 13:34:00,
2013-02-18 05:40:00,43.3,41.4,29.97,WSW,237,0.0,0.0,93,0.00,,---,0.00,VWS V14.01,2013-02-18 13:40:00,
2013-02-18 05:49:00,43.1,41.2,29.97,WSW,237,0.0,0.0,93,0.00,,---,0.00,VWS V14.01,2013-02-18 13:49:00,
2013-02-18 05:54:00,42.9,41.0,29.97,WSW,237,0.0,0.0,93,0.00,,---,0.00,VWS V14.01,2013-02-18 13:54:00,
2013-02-18 06:00:00,42.8,40.9,29.97,WSW,237,0.0,0.0,93,0.00,,---,0.00,VWS V14.01,2013-02-18 14:00:00,
2013-02-18 06:05:00,42.6,40.7,29.97,WSW,237,0.0,0.0,93,0.00,,---,0.00,VWS V14.01,2013-02-18 14:05:00,
2013-02-18 06:10:00,42.5,40.6,29.97,WSW,237,0.0,0.0,93,0.00,,---,0.00,VWS V14.01,2013-02-18 14:10:00,
2013-02-18 06:19:00,42.3,40.4,29.97,WSW,237,0.0,0.0,93,0.00,,---,0.00,VWS V14.01,2013-02-18 14:19:00,
2013-02-18 06:24:00,42.3,40.4,29.97,WSW,237,0.0,0.0,93,0.00,,---,0.00,VWS V14.01,2013-02-18 14:24:00,
2013-02-18 06:30:00,42.2,40.3,29.97,WSW,237,0.0,0.0,93,0.00,,---,0.00,VWS V14.01,2013-02-18 14:30:00,
2013-02-18 06:39:00,42.1,40.2,29.97,WSW,237,0.0,0.0,93,0.00,,---,0.00,VWS V14.01,2013-02-18 14:39:00,
2013-02-18 06:44:00,42.1,40.2,29.97,WSW,237,0.0,0.0,93,0.00,,---,0.00,VWS V14.01,2013-02-18 14:44:00,
2013-02-18 06:49:00,41.9,40.0,29.97,WSW,237,0.0,0.0,93,0.00,,---,0.00,VWS V14.01,2013-02-18 14:49:00,
2013-02-18 06:54:00,41.9,40.0,29.97,WSW,237,0.0,0.0,93,0.00,,---,0.00,VWS V14.01,2013-02-18 14:54:00,
2013-02-18 06:59:00,41.9,40.0,29.97,WSW,237,0.0,0.0,93,0.00,,---,0.00,VWS V14.01,2013-02-18 14:59:00,
2013-02-18 07:05:00,41.8,39.9,29.97,WSW,237,0.0,0.0,93,0.00,,---,0.00,VWS V14.01,2013-02-18 15:05:00,
2013-02-18 07:10:00,41.8,39.9,29.97,WSW,237,0.0,0.0,93,0.00,,---,0.00,VWS V14.01,2013-02-18 15:10:00,
2013-02-18 07:15:00,41.8,39.9,29.98,WSW,237,0.0,0.0,93,0.00,,---,0.00,VWS V14.01,2013-02-18 15:15:00,
2013-02-18 07:20:00,41.8,39.9,29.98,WSW,237,0.0,0.0,93,0.00,,---,0.00,VWS V14.01,2013-02-18 15:20:00,
2013-02-18 07:25:00,42.3,40.7,29.98,WSW,237,0.0,0.0,94,0.00,,---,0.00,VWS V14.01,2013-02-18 15:25:00,
2013-02-18 07:30:00,42.5,40.6,29.98,WSW,237,0.0,0.0,93,0.00,,---,0.00,VWS V14.01,2013-02-18 15:30:00,
2013-02-18 07:39:00,42.2,40.3,29.98,WSW,237,0.0,0.0,93,0.00,,---,0.00,VWS V14.01,2013-02-18 15:39:00,
2013-02-18 07:44:00,41.9,40.0,29.98,WSW,237,0.0,0.0,93,0.00,,---,0.00,VWS V14.01,2013-02-18 15:44:00,
2013-02-18 07:49:00,41.6,39.7,29.98,NNE,27,0.0,0.0,93,0.00,,---,0.00,VWS V14.01,2013-02-18 15:49:00,
2013-02-18 07:55:00,42.3,40.2,29.98,NNE,30,0.0,0.0,92,0.00,,---,0.00,VWS V14.01,2013-02-18 15:55:00,
2013-02-18 08:05:00,45.7,40.8,29.98,NNE,28,0.0,0.0,83,0.00,,---,0.00,VWS V14.01,2013-02-18 16:05:00,
2013-02-18 08:14:00,48.2,40.7,29.98,NNE,31,0.0,0.0,75,0.00,,---,0.00,VWS V14.01,2013-02-18 16:14:00,
2013-02-18 08:20:00,49.4,41.5,29.98,NNE,31,0.0,0.0,74,0.00,,---,0.00,VWS V14.01,2013-02-18 16:20:00,
2013-02-18 08:25:00,50.2,42.2,29.98,NE,35,0.0,0.0,74,0.00,,---,0.00,VWS V14.01,2013-02-18 16:25:00,
2013-02-18 08:34:00,51.6,44.3,29.98,NE,35,0.0,0.0,76,0.00,,---,0.00,VWS V14.01,2013-02-18 16:34:00,
2013-02-18 08:39:00,52.2,45.2,29.98,ESE,121,0.0,0.0,77,0.00,,---,0.00,VWS V14.01,2013-02-18 16:39:00,
2013-02-18 08:45:00,52.3,45.7,29.98,SSE,162,0.0,0.0,78,0.00,,---,0.00,VWS V14.01,2013-02-18 16:45:00,
2013-02-18 08:54:00,53.1,46.1,29.98,ESE,117,0.0,5.0,77,0.00,,---,0.00,VWS V14.01,2013-02-18 16:54:00,
2013-02-18 09:00:00,53.3,46.3,29.98,SSE,168,0.0,8.0,77,0.00,,---,0.00,VWS V14.01,2013-02-18 17:00:00,
2013-02-18 09:10:00,53.5,46.1,29.98,SE,144,2.0,7.0,76,0.00,,---,0.00,VWS V14.01,2013-02-18 17:10:00,
2013-02-18 09:15:00,53.6,45.9,29.98,SSE,151,8.0,8.0,75,0.00,,---,0.00,VWS V14.01,2013-02-18 17:15:00,
2013-02-18 09:25:00,54.7,46.9,29.98,SSE,152,0.0,6.0,75,0.00,,---,0.00,VWS V14.01,2013-02-18 17:25:00,
2013-02-18 09:34:00,55.0,46.2,29.97,East,95,0.0,0.0,72,0.00,,---,0.00,VWS V14.01,2013-02-18 17:34:00,
2013-02-18 09:39:00,54.8,45.2,29.97,ESE,113,0.0,0.0,70,0.00,,---,0.00,VWS V14.01,2013-02-18 17:39:00,
2013-02-18 09:44:00,54.2,44.6,29.97,ESE,113,0.0,0.0,70,0.00,,---,0.00,VWS V14.01,2013-02-18 17:44:00,
2013-02-18 09:50:00,54.7,45.5,29.97,ESE,113,0.0,0.0,71,0.00,,---,0.00,VWS V14.01,2013-02-18 17:50:00,
2013-02-18 10:00:00,55.3,45.7,29.97,SE,136,0.0,0.0,70,0.00,,---,0.00,VWS V14.01,2013-02-18 18:00:00,
2013-02-18 10:10:00,56.2,46.6,29.97,South,188,0.0,0.0,70,0.00,,---,0.00,VWS V14.01,2013-02-18 18:10:00,
2013-02-18 10:15:00,56.0,46.0,29.97,South,186,0.0,0.0,69,0.00,,---,0.00,VWS V14.01,2013-02-18 18:15:00,
2013-02-18 10:20:00,56.7,47.0,29.97,South,186,0.0,0.0,70,0.00,,---,0.00,VWS V14.01,2013-02-18 18:20:00,
2013-02-18 10:29:00,57.5,46.2,29.97,South,186,0.0,0.0,66,0.00,,---,0.00,VWS V14.01,2013-02-18 18:29:00,
2013-02-18 10:34:00,58.4,47.5,29.97,South,181,0.0,0.0,67,0.00,,---,0.00,VWS V14.01,2013-02-18 18:34:00,
2013-02-18 10:39:00,58.1,47.2,29.97,SSW,199,0.0,0.0,67,0.00,,---,0.00,VWS V14.01,2013-02-18 18:39:00,
2013-02-18 10:44:00,58.1,47.2,29.97,SSW,202,0.0,0.0,67,0.00,,---,0.00,VWS V14.01,2013-02-18 18:44:00,
2013-02-18 10:49:00,58.1,46.8,29.97,SSW,202,0.0,0.0,66,0.00,,---,0.00,VWS V14.01,2013-02-18 18:49:00,
2013-02-18 10:55:00,58.3,47.0,29.97,South,189,0.0,0.0,66,0.00,,---,0.00,VWS V14.01,2013-02-18 18:55:00,
2013-02-18 11:00:00,59.6,47.4,29.96,South,179,0.0,0.0,64,0.00,,---,0.00,VWS V14.01,2013-02-18 19:00:00,
2013-02-18 11:09:00,59.8,48.0,29.96,South,186,0.0,0.0,65,0.00,,---,0.00,VWS V14.01,2013-02-18 19:09:00,
2013-02-18 11:14:00,60.4,47.3,29.96,SSW,198,0.0,0.0,62,0.00,,---,0.00,VWS V14.01,2013-02-18 19:14:00,
2013-02-18 11:19:00,59.6,47.0,29.96,WSW,237,0.0,0.0,63,0.00,,---,0.00,VWS V14.01,2013-02-18 19:19:00,
2013-02-18 11:25:00,59.9,46.4,29.96,SW,233,0.0,0.0,61,0.00,,---,0.00,VWS V14.01,2013-02-18 19:25:00,
2013-02-18 11:35:00,60.7,46.8,29.95,SW,217,0.0,0.0,60,0.00,,---,0.00,VWS V14.01,2013-02-18 19:35:00,
2013-02-18 11:40:00,61.6,48.0,29.95,SSW,210,0.0,0.0,61,0.00,,---,0.00,VWS V14.01,2013-02-18 19:40:00,
2013-02-18 11:50:00,62.3,48.2,29.95,SW,229,0.0,0.0,60,0.00,,---,0.00,VWS V14.01,2013-02-18 19:50:00,
2013-02-18 11:55:00,62.0,47.5,29.95,SW,215,0.0,0.0,59,0.00,,---,0.00,VWS V14.01,2013-02-18 19:55:00,
2013-02-18 12:04:00,62.1,46.2,29.93,WNW,292,0.0,0.0,56,0.00,,---,0.00,VWS V14.01,2013-02-18 20:04:00,
2013-02-18 12:09:00,62.6,47.2,29.93,SW,222,0.0,0.0,57,0.00,,---,0.00,VWS V14.01,2013-02-18 20:09:00,
2013-02-18 12:14:00,63.2,46.8,29.92,SSW,198,0.0,0.0,55,0.00,,---,0.00,VWS V14.01,2013-02-18 20:14:00,
2013-02-18 12:19:00,63.2,47.7,29.92,SSE,165,0.0,0.0,57,0.00,,---,0.00,VWS V14.01,2013-02-18 20:19:00,
2013-02-18 12:25:00,63.1,45.7,29.92,SSE,165,0.0,0.0,53,0.00,,---,0.00,VWS V14.01,2013-02-18 20:25:00,
2013-02-18 12:35:00,63.7,47.2,29.91,WSW,251,0.0,0.0,55,0.00,,---,0.00,VWS V14.01,2013-02-18 20:35:00,
2013-02-18 12:45:00,64.3,47.3,29.91,South,178,0.0,0.0,54,0.00,,---,0.00,VWS V14.01,2013-02-18 20:45:00,
2013-02-18 12:55:00,65.0,48.9,29.91,SW,215,0.0,7.0,56,0.00,,---,0.00,VWS V14.01,2013-02-18 20:55:00,
2013-02-18 13:00:00,65.3,48.2,29.90,South,188,0.0,4.0,54,0.00,,---,0.00,VWS V14.01,2013-02-18 21:00:00,
2013-02-18 13:09:00,64.2,47.7,29.90,WSW,258,0.0,2.0,55,0.00,,---,0.00,VWS V14.01,2013-02-18 21:09:00,
2013-02-18 13:15:00,64.3,48.8,29.90,WSW,240,0.0,2.0,57,0.00,,---,0.00,VWS V14.01,2013-02-18 21:15:00,
2013-02-18 13:20:00,65.3,49.2,29.90,WSW,244,0.0,1.0,56,0.00,,---,0.00,VWS V14.01,2013-02-18 21:20:00,
2013-02-18 13:25:00,64.3,48.3,29.90,NW,318,0.0,2.0,56,0.00,,---,0.00,VWS V14.01,2013-02-18 21:25:00,
2013-02-18 13:30:00,65.0,48.9,29.89,SW,224,0.0,10.0,56,0.00,,---,0.00,VWS V14.01,2013-02-18 21:30:00,
2013-02-18 13:35:00,65.3,49.2,29.89,SW,227,0.0,3.0,56,0.00,,---,0.00,VWS V14.01,2013-02-18 21:35:00,
2013-02-18 13:44:00,65.3,48.7,29.88,WSW,251,6.0,7.0,55,0.00,,---,0.00,VWS V14.01,2013-02-18 21:44:00,
2013-02-18 13:50:00,64.3,48.8,29.88,SSW,192,8.0,10.0,57,0.00,,---,0.00,VWS V14.01,2013-02-18 21:50:00,
2013-02-18 13:55:00,64.5,49.0,29.88,West,260,6.0,13.0,57,0.00,,---,0.00,VWS V14.01,2013-02-18 21:55:00,
2013-02-18 14:00:00,63.7,49.1,29.89,WSW,244,4.0,8.0,59,0.00,,---,0.00,VWS V14.01,2013-02-18 22:00:00,
2013-02-18 14:05:00,63.9,49.3,29.89,SW,219,1.0,8.0,59,0.00,,---,0.00,VWS V14.01,2013-02-18 22:05:00,
2013-02-18 14:10:00,63.4,49.3,29.89,West,280,8.0,11.0,60,0.00,,---,0.00,VWS V14.01,2013-02-18 22:10:00,
2013-02-18 14:15:00,63.4,49.7,29.89,SSW,209,10.0,10.0,61,0.00,,---,0.00,VWS V14.01,2013-02-18 22:15:00,
2013-02-18 14:30:00,62.6,49.4,29.88,NW,312,6.0,8.0,62,0.00,,---,0.00,VWS V14.01,2013-02-18 22:30:00,
2013-02-18 14:39:00,61.8,49.1,29.88,SSW,203,4.0,11.0,63,0.00,,---,0.00,VWS V14.01,2013-02-18 22:39:00,
2013-02-18 14:45:00,61.6,49.7,29.88,WSW,243,10.0,12.0,65,0.00,,---,0.00,VWS V14.01,2013-02-18 22:45:00,
2013-02-18 14:50:00,61.6,49.3,29.88,WSW,239,1.0,10.0,64,0.00,,---,0.00,VWS V14.01,2013-02-18 22:50:00,
2013-02-18 14:59:00,61.6,49.7,29.88,SW,222,0.0,10.0,65,0.00,,---,0.00,VWS V14.01,2013-02-18 22:59:00,
2013-02-18 15:05:00,61.2,49.8,29.88,SW,230,3.0,11.0,66,0.00,,---,0.00,VWS V14.01,2013-02-18 23:05:00,
2013-02-18 15:10:00,61.0,49.6,29.88,SSW,200,6.0,10.0,66,0.00,,---,0.00,VWS V14.01,2013-02-18 23:10:00,
2013-02-18 15:20:00,61.2,49.8,29.87,SW,222,0.0,8.0,66,0.00,,---,0.00,VWS V14.01,2013-02-18 23:20:00,
2013-02-18 15:25:00,61.2,49.8,29.87,SW,216,0.0,11.0,66,0.00,,---,0.00,VWS V14.01,2013-02-18 23:25:00,
2013-02-18 15:35:00,61.6,49.7,29.87,SW,232,0.0,5.0,65,0.00,,---,0.00,VWS V14.01,2013-02-18 23:35:00,
2013-02-18 15:40:00,61.5,50.0,29.87,SSW,206,0.0,10.0,66,0.00,,---,0.00,VWS V14.01,2013-02-18 23:40:00,
2013-02-18 15:49:00,60.9,49.5,29.86,SW,229,0.0,9.0,66,0.00,,---,0.00,VWS V14.01,2013-02-18 23:49:00,
2013-02-18 15:54:00,61.0,50.0,29.86,SW,230,0.0,6.0,67,0.00,,---,0.00,VWS V14.01,2013-02-18 23:54:00,
2013-02-18 16:00:00,61.0,50.0,29.85,SSW,213,0.0,6.0,67,0.00,,---,0.00,VWS V14.01,2013-02-19 00:00:00,
2013-02-18 16:05:00,61.0,50.0,29.85,SSW,196,0.0,10.0,67,0.00,,---,0.00,VWS V14.01,2013-02-19 00:05:00,
2013-02-18 16:10:00,60.5,49.5,29.85,SW,215,3.0,8.0,67,0.00,,---,0.00,VWS V14.01,2013-02-19 00:10:00,
2013-02-18 16:15:00,60.2,49.6,29.85,SW,232,0.0,7.0,68,0.00,,---,0.00,VWS V14.01,2013-02-19 00:15:00,
2013-02-18 16:29:00,59.5,49.3,29.85,West,260,0.0,3.0,69,0.00,,---,0.00,VWS V14.01,2013-02-19 00:29:00,
2013-02-18 16:35:00,59.3,49.5,29.85,SW,224,2.0,6.0,70,0.00,,---,0.00,VWS V14.01,2013-02-19 00:35:00,
2013-02-18 16:40:00,59.2,49.4,29.85,SW,232,0.0,3.0,70,0.00,,---,0.00,VWS V14.01,2013-02-19 00:40:00,
2013-02-18 16:50:00,58.6,49.2,29.85,SW,215,0.0,5.0,71,0.00,,---,0.00,VWS V14.01,2013-02-19 00:50:00,
2013-02-18 16:55:00,58.3,49.0,29.85,SW,217,0.0,6.0,71,0.00,,---,0.00,VWS V14.01,2013-02-19 00:55:00,
2013-02-18 17:00:00,58.0,49.0,29.85,WSW,240,0.0,0.0,72,0.00,,---,0.00,VWS V14.01,2013-02-19 01:00:00,
2013-02-18 17:05:00,57.6,48.7,29.85,WSW,248,0.0,0.0,72,0.00,,---,0.00,VWS V14.01,2013-02-19 01:05:00,
2013-02-18 17:10:00,57.6,48.7,29.85,WSW,251,0.0,0.0,72,0.00,,---,0.00,VWS V14.01,2013-02-19 01:10:00,
2013-02-18 17:20:00,57.3,48.4,29.85,WSW,240,0.0,5.0,72,0.00,,---,0.00,VWS V14.01,2013-02-19 01:20:00,
2013-02-18 17:30:00,56.9,48.0,29.85,WSW,240,0.0,6.0,72,0.00,,---,0.00,VWS V14.01,2013-02-19 01:30:00,
2013-02-18 17:39:00,56.2,47.7,29.85,SW,222,0.0,0.0,73,0.00,,---,0.00,VWS V14.01,2013-02-19 01:39:00,
2013-02-18 17:45:00,55.9,47.4,29.86,WSW,248,0.0,0.0,73,0.00,,---,0.00,VWS V14.01,2013-02-19 01:45:00,
2013-02-18 17:50:00,55.6,47.5,29.86,West,263,2.0,3.0,74,0.00,,---,0.00,VWS V14.01,2013-02-19 01:50:00,
2013-02-18 17:55:00,55.1,47.0,29.86,West,280,0.0,10.0,74,0.00,,---,0.00,VWS V14.01,2013-02-19 01:55:00,
2013-02-18 18:00:00,54.8,47.0,29.86,WSW,247,0.0,0.0,75,0.00,,---,0.00,VWS V14.01,2013-02-19 02:00:00,
2013-02-18 18:05:00,54.5,46.8,29.86,SW,230,0.0,0.0,75,0.00,,---,0.00,VWS V14.01,2013-02-19 02:05:00,
2013-02-18 18:10:00,54.2,46.8,29.86,SW,233,0.0,0.0,76,0.00,,---,0.00,VWS V14.01,2013-02-19 02:10:00,
2013-02-18 18:20:00,53.6,46.6,29.87,SW,232,0.0,0.0,77,0.00,,---,0.00,VWS V14.01,2013-02-19 02:20:00,
2013-02-18 18:25:00,53.5,46.5,29.87,SW,232,0.0,0.0,77,0.00,,---,0.00,VWS V14.01,2013-02-19 02:25:00,
2013-02-18 18:35:00,53.1,46.4,29.88,SW,233,0.0,0.0,78,0.00,,---,0.00,VWS V14.01,2013-02-19 02:35:00,
2013-02-18 18:45:00,52.8,46.5,29.88,West,274,0.0,0.0,79,0.00,,---,0.00,VWS V14.01,2013-02-19 02:45:00,
2013-02-18 18:54:00,52.6,46.6,29.88,West,264,0.0,0.0,80,0.00,,---,0.00,VWS V14.01,2013-02-19 02:54:00,
2013-02-18 18:59:00,52.6,46.6,29.89,WSW,248,0.0,0.0,80,0.00,,---,0.00,VWS V14.01,2013-02-19 02:59:00,
2013-02-18 19:05:00,52.6,46.9,29.89,West,265,0.0,0.0,81,0.00,,---,0.00,VWS V14.01,2013-02-19 03:05:00,
2013-02-18 19:15:00,52.8,47.5,29.89,WSW,256,0.0,0.0,82,0.00,,---,0.00,VWS V14.01,2013-02-19 03:15:00,
2013-02-18 19:20:00,52.8,47.5,29.89,WSW,257,0.0,0.0,82,0.00,,---,0.00,VWS V14.01,2013-02-19 03:20:00,
2013-02-18 19:25:00,52.8,47.5,29.89,WSW,257,0.0,0.0,82,0.00,,---,0.00,VWS V14.01,2013-02-19 03:25:00,
2013-02-18 19:34:00,52.8,47.5,29.89,SW,236,0.0,0.0,82,0.00,,---,0.00,VWS V14.01,2013-02-19 03:34:00,
2013-02-18 19:40:00,52.9,47.6,29.89,SW,236,0.0,0.0,82,0.00,,---,0.00,VWS V14.01,2013-02-19 03:40:00,
2013-02-18 19:45:00,52.9,47.6,29.90,SW,230,0.0,0.0,82,0.00,,---,0.00,VWS V14.01,2013-02-19 03:45:00,
2013-02-18 19:54:00,52.9,47.9,29.90,SW,230,0.0,0.0,83,0.00,,---,0.00,VWS V14.01,2013-02-19 03:54:00,
2013-02-18 20:00:00,52.9,47.9,29.90,SW,230,0.0,0.0,83,0.00,,---,0.00,VWS V14.01,2013-02-19 04:00:00,
2013-02-18 20:10:00,52.9,47.9,29.90,SW,230,0.0,0.0,83,0.00,,---,0.00,VWS V14.01,2013-02-19 04:10:00,
2013-02-18 20:15:00,52.8,47.8,29.90,SW,230,0.0,0.0,83,0.00,,---,0.00,VWS V14.01,2013-02-19 04:15:00,
2013-02-18 20:24:00,52.8,47.8,29.90,SW,230,0.0,0.0,83,0.00,,---,0.00,VWS V14.01,2013-02-19 04:24:00,
2013-02-18 20:29:00,52.8,47.8,29.90,SW,230,0.0,0.0,83,0.00,,---,0.00,VWS V14.01,2013-02-19 04:29:00,
2013-02-18 20:34:00,52.8,47.8,29.90,SW,230,0.0,0.0,83,0.00,,---,0.00,VWS V14.01,2013-02-19 04:34:00,
2013-02-18 20:44:00,52.8,48.1,29.90,SW,230,0.0,0.0,84,0.00,,---,0.00,VWS V14.01,2013-02-19 04:44:00,
2013-02-18 20:49:00,52.8,48.1,29.90,SW,230,0.0,0.0,84,0.00,,---,0.00,VWS V14.01,2013-02-19 04:49:00,
2013-02-18 20:55:00,52.8,48.1,29.90,SW,230,0.0,0.0,84,0.00,,---,0.00,VWS V14.01,2013-02-19 04:55:00,
2013-02-18 21:05:00,52.8,48.1,29.91,SW,230,0.0,0.0,84,0.00,,---,0.00,VWS V14.01,2013-02-19 05:05:00,
2013-02-18 21:09:00,52.8,48.1,29.91,SW,230,0.0,0.0,84,0.00,,---,0.00,VWS V14.01,2013-02-19 05:09:00,
2013-02-18 21:15:00,52.8,48.1,29.91,SW,230,0.0,0.0,84,0.00,,---,0.00,VWS V14.01,2013-02-19 05:15:00,
2013-02-18 21:25:00,52.6,47.9,29.91,SW,230,0.0,0.0,84,0.00,,---,0.00,VWS V14.01,2013-02-19 05:25:00,
2013-02-18 21:30:00,52.5,47.8,29.91,SW,230,0.0,0.0,84,0.00,,---,0.00,VWS V14.01,2013-02-19 05:30:00,
2013-02-18 21:39:00,52.2,47.5,29.91,SW,230,0.0,0.0,84,0.00,,---,0.00,VWS V14.01,2013-02-19 05:39:00,
2013-02-18 21:45:00,52.0,47.3,29.91,SW,230,0.0,0.0,84,0.00,,---,0.00,VWS V14.01,2013-02-19 05:45:00,
2013-02-18 21:54:00,51.6,46.6,29.91,SW,230,0.0,0.0,83,0.00,,---,0.00,VWS V14.01,2013-02-19 05:54:00,
2013-02-18 22:00:00,51.3,46.3,29.90,SW,230,0.0,0.0,83,0.00,,---,0.00,VWS V14.01,2013-02-19 06:00:00,
2013-02-18 22:10:00,50.7,45.7,29.90,SW,230,0.0,0.0,83,0.00,,---,0.00,VWS V14.01,2013-02-19 06:10:00,
2013-02-18 22:19:00,49.9,45.0,29.90,SW,230,0.0,0.0,83,0.00,,---,0.00,VWS V14.01,2013-02-19 06:19:00,
2013-02-18 22:25:00,49.6,44.7,29.90,SW,230,0.0,0.0,83,0.00,,---,0.00,VWS V14.01,2013-02-19 06:25:00,
2013-02-18 22:35:00,48.9,44.0,29.90,SW,230,0.0,0.0,83,0.00,,---,0.00,VWS V14.01,2013-02-19 06:35:00,
2013-02-18 22:44:00,48.3,43.4,29.90,SW,230,0.0,0.0,83,0.00,,---,0.00,VWS V14.01,2013-02-19 06:44:00,
2013-02-18 22:50:00,48.0,43.1,29.90,SW,230,0.0,0.0,83,0.00,,---,0.00,VWS V14.01,2013-02-19 06:50:00,
2013-02-18 23:00:00,47.6,42.7,29.90,SW,230,0.0,0.0,83,0.00,,---,0.00,VWS V14.01,2013-02-19 07:00:00,
2013-02-18 23:05:00,47.4,42.5,29.90,SW,230,0.0,0.0,83,0.00,,---,0.00,VWS V14.01,2013-02-19 07:05:00,
2013-02-18 23:10:00,47.3,42.4,29.90,SW,230,0.0,0.0,83,0.00,,---,0.00,VWS V14.01,2013-02-19 07:10:00,
2013-02-18 23:15:00,47.1,42.2,29.89,SW,230,0.0,0.0,83,0.00,,---,0.00,VWS V14.01,2013-02-19 07:15:00,
2013-02-18 23:20:00,47.1,42.5,29.89,SW,230,0.0,0.0,84,0.00,,---,0.00,VWS V14.01,2013-02-19 07:20:00,
2013-02-18 23:30:00,47.3,42.7,29.90,SW,230,0.0,0.0,84,0.00,,---,0.00,VWS V14.01,2013-02-19 07:30:00,
2013-02-18 23:39:00,47.6,43.3,29.90,SW,230,0.0,0.0,85,0.00,,---,0.00,VWS V14.01,2013-02-19 07:39:00,
2013-02-18 23:45:00,47.9,43.6,29.90,SW,230,0.0,0.0,85,0.00,,---,0.00,VWS V14.01,2013-02-19 07:45:00,
2013-02-18 23:55:00,48.2,44.2,29.90,SW,230,0.0,0.0,86,0.00,,---,0.00,VWS V14.01,2013-02-19 07:55:00,